{"data":{"norad_id":52488,"epoch":"2026-09-20T00:10:45.234336Z","epoch_age_seconds":105855,"freshness":"FRESH","line1":"1 52488U 22049AP  26263.00746799  .00000695  00000+0  32449-4 0  9990","line2":"2 52488  53.1590 256.1044 0001267  87.2937 272.8210 15.33550154241737","mean_motion":15.33550154,"eccentricity":0.0001267,"inclination_deg":53.159,"raan_deg":256.1044,"arg_perigee_deg":87.2937,"mean_anomaly_deg":272.821,"bstar":3.2449e-5,"rev_number":24173,"period_min":93.899765602319,"perigee_km":464.36327339327,"apogee_km":466.09738267419,"semimajor_km":6843.3673280337,"source":"CELESTRAK","updated_at":"2026-09-20T09:00:40.054940Z"}}